[[{"header":{"parameterUnit":"m.s-1","parameterCategory":2,"la1":30.2991,"la2":30.254,"lo1":-89.0895,"lo2":-89.0444,"dy":0.0017,"dx":0.0017,"nx":28,"ny":28,"refTime":"2023-08-21T03:00:00:Z","depth":"0","parameterNumber":2,"parameterNumberName":"U-component_of_CURRENTS"},"data":[0,0,0,0,0,0,0,0,0,0,0,0,0,0,0,0,0,0,0,0,0,0,0,0,0,0,0,0,0,0,0,0,0,0,0,0,0,0,0,0,0,0,0,0,0,0,0,0,0,0,0,0,0,0,0,0,0,0,0.2483,0.2483,0,0.2473,0.2472,0.2472,0.2465,0.2465,0.2465,0.2465,0.2403,0.2402,0.24,0,0,0,0,0,0,0,0,0,0,0,0,0,0.2498,0.2497,0.2483,0.2483,0.2483,0.2473,0.2472,0.2472,0.2465,0.2465,0.2465,0.2465,0.2404,0.2402,0.24,0,0,0,0,0,0,0,0,0,0,0,0,0,0.2487,0.2497,0.2483,0.248,0.248,0.2473,0.2472,0.2472,0.2465,0.2465,0.2465,0.2465,0.2405,0.2402,0.2399,0.2377,0,0,0.2391,0.239,0,0,0,0,0,0,0,0,0.2488,0.2486,0.2481,0.2481,0.248,0.2473,0.2455,0.2438,0.2465,0.2468,0.2465,0.2466,0.2423,0.2419,0.2413,0.2374,0.2371,0.2391,0.2389,0.2388,0.2387,0,0,0,0,0,0,0,0.2489,0.2487,0.2476,0.2481,0.2481,0.248,0.2479,0.2452,0.2441,0.2468,0.2468,0.2471,0.2422,0.2416,0.2412,0.2371,0.2391,0.2388,0.2387,0.2386,0.2291,0.229,0,0,0,0,0,0,0.2495,0.2488,0.2477,0.2476,0.2488,0.248,0.2478,0.2473,0.2443,0.2439,0.247,0.247,0.2421,0.2415,0.241,0.237,0.2388,0.2385,0.2384,0.2292,0.2291,0.229,0,0,0,0,0,0,0.2495,0.2493,0.2477,0.2484,0.2483,0.248,0.2473,0.2472,0.2468,0.2446,0.2441,0.2467,0.2421,0.2413,0.2385,0.2368,0.2384,0.2382,0.2293,0.2292,0.229,0.2299,0,0,0,0,0,0,0.2495,0.2493,0.2485,0.2484,0.2482,0.2467,0.2473,0.2472,0.247,0.247,0.2441,0.2436,0.242,0.2389,0.2382,0.2365,0.2379,0.2294,0.2292,0.2291,0.23,0.2298,0.2296,0,0,0,0,0,0.2496,0.2475,0.2484,0.2483,0.2473,0.2467,0.2465,0.2463,0.247,0.2461,0.2447,0.2437,0.2374,0.2387,0.2379,0.236,0.2295,0.2293,0.2291,0.23,0.2298,0.2296,0,0,0,0,0,0,0.2466,0.2473,0.2483,0.2463,0.2468,0.2467,0.2454,0.2463,0.2446,0.2444,0.2428,0.2421,0.239,0.2372,0.2387,0.2327,0.2331,0.2327,0.2341,0.2338,0.2337,0.2328,0.2377,0,0,0,0,0,0.246,0.2449,0.2462,0.2444,0.2448,0.2455,0.2452,0.2456,0.2447,0.2441,0.2424,0.24,0.2375,0.2357,0.2332,0.2298,0.2285,0.2279,0.2278,0.2276,0.2262,0.2238,0.2234,0.2284,0.2284,0.2284,0,0,0.2441,0.2445,0.2436,0.2438,0.244,0.2437,0.2452,0.2446,0.2438,0.2434,0.2407,0.2395,0.2366,0.2332,0.2315,0.2315,0.2256,0.2274,0.2273,0.2259,0.2236,0.2231,0.2227,0.2282,0.2282,0.2283,0,0,0.2399,0.2406,0.2387,0.2396,0.2406,0.2414,0.2416,0.2421,0.2416,0.2399,0.2393,0.237,0.2333,0.2308,0.2291,0.2262,0.2253,0.2256,0.2235,0.2212,0.2208,0.2204,0.2191,0.2186,0.2251,0.2251,0.2251,0,0.2371,0.2361,0.2379,0.2373,0.2376,0.2406,0.2396,0.2395,0.2388,0.2378,0.2387,0.2336,0.2316,0.2272,0.2264,0.2257,0.225,0.2249,0.2211,0.2207,0.2203,0.219,0.2185,0.2251,0.2251,0.2251,0.2251,0,0.2328,0.2325,0.2314,0.2321,0.2327,0.232,0.234,0.2338,0.2346,0.2343,0.2312,0.2293,0.2261,0.2254,0.2249,0.2207,0.2215,0.2219,0.2221,0.2199,0.2187,0.218,0.2251,0.2251,0.2251,0.2251,0,0,0.2237,0.2276,0.2269,0.2278,0.2303,0.23,0.2296,0.2293,0.2286,0.2279,0.2252,0.222,0.2222,0.2202,0.2197,0.2176,0.2149,0.2186,0.2184,0.218,0.2108,0.2152,0.2149,0.2155,0.2154,0.2153,0.2116,0,0.2191,0.2181,0.2211,0.22,0.22,0.224,0.2233,0.2239,0.2244,0.2226,0.2211,0.2184,0.2199,0.2187,0.2168,0.2153,0.2132,0.2159,0.2122,0.2121,0.2168,0.2143,0.2216,0.2192,0.211,0.2109,0.2108,0,0.2129,0.2137,0.2124,0.2156,0.2158,0.2157,0.2165,0.2167,0.2163,0.2165,0.2149,0.2147,0.2112,0.2131,0.2092,0.2114,0.2104,0.2097,0.2096,0.2125,0.2153,0.2196,0.2184,0.2124,0.2098,0.2099,0.21,0,0.2055,0.2069,0.2062,0.2071,0.211,0.2107,0.2123,0.2135,0.2135,0.2123,0.2118,0.2092,0.2072,0.2059,0.2057,0.2072,0.2019,0.2037,0.2064,0.2067,0.2113,0.2123,0.2043,0.1997,0.1997,0.1997,0.1997,0,0.1993,0.1982,0.2028,0.2024,0.2015,0.2056,0.2043,0.2063,0.2072,0.2061,0.2078,0.2059,0.2054,0.2036,0.2036,0.2035,0.2002,0.2049,0.2055,0.212,0.213,0.2069,0.1932,0.1996,0.1996,0.1996,0.1996,0,0.1914,0.1945,0.1941,0.1976,0.1984,0.1975,0.2009,0.2005,0.2025,0.2011,0.2005,0.2016,0.2005,0.2009,0.1981,0.2009,0.1939,0.2005,0.2089,0.2106,0.2099,0.1959,0.1738,0.1698,0.2033,0.2034,0.2034,0,0.1867,0.186,0.1898,0.1904,0.1919,0.1922,0.1931,0.1968,0.1971,0.1984,0.197,0.1966,0.1964,0.1963,0.2015,0.2033,0.1918,0.2105,0.2143,0.2095,0.1942,0.1806,0.1779,0.2207,0.2209,0.2211,0.2212,0,0.1778,0.1801,0.1816,0.1837,0.1846,0.1858,0.1873,0.1876,0.1915,0.1918,0.1921,0.1922,0.196,0.2013,0.2059,0.2099,0.2004,0.214,0.2061,0.2033,0.1902,0.1872,0.2233,0.2227,0.2225,0.2224,0.2223,0.2223,0.1705,0.1708,0.1741,0.1764,0.1779,0.1792,0.1788,0.1818,0.1828,0.183,0.1862,0.1875,0.1983,0.2076,0.2123,0.2229,0.2053,0.2235,0.2058,0.1922,0.1895,0.2291,0.2312,0.2311,0.231,0.231,0.2309,0,0.1605,0.1638,0.1664,0.1688,0.1689,0.1723,0.1745,0.1743,0.1749,0.1773,0.178,0.1891,0.1997,0.2107,0.2267,0.2205,0.2136,0.2091,0.1924,0.1898,0.2267,0.2298,0.2353,0.2353,0.2353,0.2353,0.2353,0.2353,0.1548,0.1555,0.16,0.1592,0.161,0.1591,0.1601,0.1623,0.1647,0.1673,0.1718,0.1769,0.1921,0.1994,0.2083,0.2046,0.1826,0.1703,0.1565,0.185,0.1852,0.1853,0.186,0.1822,0.1821,0.1326,0.132,0.1316]},{"header":{"parameterUnit":"m.s-1","parameterCategory":2,"la1":30.2991,"la2":30.254,"lo1":-89.0895,"lo2":-89.0444,"dy":0.0017,"dx":0.0017,"nx":28,"ny":28,"refTime":"2023-08-21T03:00:00:Z","depth":"0","parameterNumber":3,"parameterNumberName":"V-component_of_CURRENTS"},"data":[0,0,0,0,0,0,0,0,0,0,0,0,0,0,0,0,0,0,0,0,0,0,0,0,0,0,0,0,0,0,0,0,0,0,0,0,0,0,0,0,0,0,0,0,0,0,0,0,0,0,0,0,0,0,0,0,0,0,-0.147,-0.147,0,-0.15,-0.15,-0.15,-0.1474,-0.1473,-0.1472,-0.1471,-0.1466,-0.1467,-0.1468,0,0,0,0,0,0,0,0,0,0,0,0,0,-0.1401,-0.1402,-0.147,-0.147,-0.1471,-0.15,-0.15,-0.15,-0.1474,-0.1473,-0.1472,-0.1471,-0.1466,-0.1467,-0.1468,0,0,0,0,0,0,0,0,0,0,0,0,0,-0.1429,-0.1402,-0.147,-0.1462,-0.1462,-0.15,-0.15,-0.15,-0.1474,-0.1473,-0.1471,-0.147,-0.1466,-0.1467,-0.1468,-0.1504,0,0,-0.1471,-0.1472,0,0,0,0,0,0,0,0,-0.1428,-0.1432,-0.1463,-0.1463,-0.1463,-0.1483,-0.1474,-0.15,-0.1475,-0.1468,-0.1471,-0.1469,-0.1471,-0.1471,-0.1479,-0.1503,-0.1503,-0.1472,-0.1472,-0.1473,-0.1473,0,0,0,0,0,0,0,-0.1426,-0.143,-0.148,-0.1464,-0.1464,-0.1461,-0.1463,-0.1479,-0.1475,-0.1469,-0.1467,-0.1473,-0.147,-0.1478,-0.1478,-0.1503,-0.1472,-0.1473,-0.1473,-0.1474,-0.1546,-0.1547,0,0,0,0,0,0,-0.1426,-0.1429,-0.1479,-0.1481,-0.1443,-0.1464,-0.1466,-0.1477,-0.1476,-0.1475,-0.1474,-0.1472,-0.1476,-0.1477,-0.1478,-0.1518,-0.1473,-0.1474,-0.1474,-0.1545,-0.1546,-0.1548,0,0,0,0,0,0,-0.1425,-0.1431,-0.1478,-0.1456,-0.1462,-0.1466,-0.1479,-0.1478,-0.1486,-0.1481,-0.1479,-0.1483,-0.1475,-0.1476,-0.1495,-0.1517,-0.1474,-0.1475,-0.1543,-0.1545,-0.1547,-0.1599,0,0,0,0,0,0,-0.1423,-0.143,-0.1444,-0.1457,-0.1464,-0.151,-0.148,-0.148,-0.1493,-0.149,-0.1488,-0.1486,-0.1474,-0.1493,-0.1496,-0.1518,-0.1476,-0.1542,-0.1544,-0.1546,-0.1595,-0.1602,-0.1608,0,0,0,0,0,-0.142,-0.1449,-0.1445,-0.1451,-0.1481,-0.1512,-0.1516,-0.1512,-0.1495,-0.1511,-0.1503,-0.1486,-0.1509,-0.1496,-0.1498,-0.1521,-0.1541,-0.1543,-0.1546,-0.1593,-0.1601,-0.1608,0,0,0,0,0,0,-0.1441,-0.145,-0.1445,-0.1479,-0.1497,-0.1508,-0.1527,-0.1521,-0.1529,-0.1523,-0.1506,-0.1505,-0.1525,-0.1522,-0.1507,-0.1549,-0.1521,-0.1525,-0.1556,-0.1563,-0.1569,-0.1558,-0.1477,0,0,0,0,0,-0.145,-0.1464,-0.1479,-0.1508,-0.1517,-0.1523,-0.1535,-0.1533,-0.154,-0.1542,-0.1539,-0.1537,-0.1542,-0.155,-0.1553,-0.1587,-0.1564,-0.1602,-0.1608,-0.1613,-0.1607,-0.1596,-0.16,-0.1557,-0.1557,-0.1557,0,0,-0.1465,-0.1475,-0.1482,-0.1511,-0.1523,-0.1546,-0.1527,-0.1553,-0.1569,-0.1542,-0.1565,-0.1558,-0.1553,-0.1579,-0.159,-0.158,-0.1616,-0.1617,-0.1621,-0.1611,-0.1599,-0.1603,-0.1607,-0.1559,-0.1558,-0.1558,0,0,-0.1503,-0.1513,-0.1533,-0.1549,-0.1571,-0.1575,-0.1584,-0.1599,-0.1602,-0.1628,-0.1604,-0.161,-0.1631,-0.1626,-0.1626,-0.1673,-0.1643,-0.1681,-0.1711,-0.1702,-0.1705,-0.1707,-0.1691,-0.1691,-0.1691,-0.1691,-0.1691,0,-0.1517,-0.1547,-0.1549,-0.1575,-0.1589,-0.1588,-0.1615,-0.1628,-0.1646,-0.1648,-0.1641,-0.1649,-0.1649,-0.1665,-0.1681,-0.1685,-0.1672,-0.1683,-0.1709,-0.171,-0.1712,-0.1694,-0.1694,-0.1694,-0.1694,-0.1693,-0.1693,0,-0.1568,-0.159,-0.1609,-0.163,-0.1649,-0.1677,-0.1687,-0.1705,-0.1703,-0.1705,-0.1718,-0.1715,-0.1714,-0.1725,-0.1719,-0.1736,-0.1721,-0.1711,-0.1686,-0.1719,-0.1699,-0.1698,-0.1698,-0.1697,-0.1696,-0.1696,0,0,-0.1597,-0.1632,-0.1638,-0.1647,-0.1676,-0.1693,-0.1725,-0.1746,-0.1751,-0.1768,-0.177,-0.1789,-0.1772,-0.1771,-0.1765,-0.1767,-0.1774,-0.1752,-0.175,-0.1729,-0.1749,-0.1686,-0.1678,-0.1769,-0.1769,-0.177,-0.1733,0,-0.1633,-0.1676,-0.1688,-0.1726,-0.1746,-0.1752,-0.1774,-0.1789,-0.1796,-0.18,-0.1795,-0.1794,-0.1796,-0.179,-0.1796,-0.1769,-0.1772,-0.1784,-0.1725,-0.1723,-0.1658,-0.1675,-0.1546,-0.1498,-0.1731,-0.1731,-0.1731,0,-0.168,-0.1696,-0.1736,-0.1753,-0.1762,-0.1781,-0.1797,-0.1817,-0.1825,-0.1825,-0.1826,-0.1813,-0.1815,-0.1807,-0.1789,-0.1797,-0.178,-0.1763,-0.1761,-0.1679,-0.1657,-0.1502,-0.1486,-0.134,-0.1728,-0.1729,-0.1729,0,-0.1692,-0.173,-0.1754,-0.1765,-0.1789,-0.18,-0.1807,-0.1822,-0.1823,-0.183,-0.1821,-0.1825,-0.1806,-0.1798,-0.1773,-0.1781,-0.174,-0.1742,-0.1671,-0.1666,-0.153,-0.1512,-0.1354,-0.1729,-0.1729,-0.1729,-0.1729,0,-0.1723,-0.1743,-0.1757,-0.1771,-0.1784,-0.1799,-0.1808,-0.182,-0.1818,-0.1807,-0.1823,-0.1809,-0.1803,-0.1782,-0.1769,-0.1708,-0.1737,-0.1668,-0.165,-0.1545,-0.1531,-0.1376,-0.1378,-0.1727,-0.1728,-0.1728,-0.1728,0,-0.1735,-0.1753,-0.1774,-0.179,-0.1793,-0.1798,-0.1795,-0.1793,-0.18,-0.1784,-0.1782,-0.1785,-0.1761,-0.175,-0.1721,-0.1682,-0.1572,-0.1618,-0.1492,-0.146,-0.125,-0.1263,-0.1227,-0.1173,-0.1525,-0.1523,-0.1522,0,-0.1743,-0.1758,-0.1775,-0.1773,-0.1778,-0.1781,-0.1776,-0.1783,-0.1772,-0.1764,-0.1748,-0.1734,-0.1703,-0.1637,-0.1577,-0.1523,-0.1502,-0.1367,-0.1358,-0.1208,-0.1209,-0.1288,-0.1251,-0.1203,-0.1199,-0.1195,-0.1193,0,-0.174,-0.175,-0.1758,-0.1758,-0.1755,-0.1745,-0.1736,-0.1723,-0.172,-0.1695,-0.1666,-0.1642,-0.1583,-0.1455,-0.1382,-0.1342,-0.1264,-0.1298,-0.1166,-0.0961,-0.1013,-0.0961,-0.1263,-0.1163,-0.1166,-0.1169,-0.117,-0.1171,-0.1723,-0.1723,-0.1729,-0.1729,-0.1721,-0.1697,-0.166,-0.1641,-0.1601,-0.1509,-0.1551,-0.1417,-0.1289,-0.1167,-0.114,-0.0908,-0.1077,-0.0804,-0.0838,-0.0936,-0.0859,-0.1099,-0.0968,-0.097,-0.0972,-0.0973,-0.0974,0,-0.1682,-0.1685,-0.1691,-0.1676,-0.1649,-0.166,-0.1616,-0.1548,-0.1465,-0.1346,-0.1278,-0.1005,-0.0838,-0.0726,-0.0493,-0.0402,-0.0465,-0.0368,-0.0403,-0.0394,-0.0576,-0.0526,-0.0264,-0.0264,-0.0264,-0.0264,-0.0265,-0.0265,-0.1657,-0.1644,-0.1656,-0.1606,-0.1589,-0.15,-0.1458,-0.1356,-0.1235,-0.0945,-0.071,-0.0587,-0.0299,-0.0171,0.0043,0.0024,0.0032,-0.0036,-0.0075,-0.0114,-0.0156,-0.0196,-0.014,0.0198,0.0198,0.0168,0.0168,0.0168]}],[{"header":{"parameterUnit":"m.s-1","parameterCategory":2,"la1":30.2991,"la2":30.254,"lo1":-89.0895,"lo2":-89.0444,"dy":0.0017,"dx":0.0017,"nx":28,"ny":28,"refTime":"2023-08-21T03:00:00:Z","depth":"2","parameterNumber":2,"parameterNumberName":"U-component_of_CURRENTS"},"data":[0,0,0,0,0,0,0,0,0,0,0,0,0,0,0,0,0,0,0,0,0,0,0,0,0,0,0,0,0,0,0,0,0,0,0,0,0,0,0,0,0,0,0,0,0,0,0,0,0,0,0,0,0,0,0,0,0,0,0.1035,0.1034,0,0.1022,0.1022,0.1021,0.104,0.104,0.1041,0.1042,0.1086,0.1086,0.1087,0,0,0,0,0,0,0,0,0,0,0,0,0,0.1081,0.1079,0.1035,0.1034,0.1034,0.1022,0.1022,0.1021,0.1039,0.104,0.1041,0.1042,0.1086,0.1086,0.1087,0,0,0,0,0,0,0,0,0,0,0,0,0,0.1062,0.1079,0.1035,0.1043,0.1043,0.1022,0.1022,0.1021,0.1039,0.104,0.1041,0.1043,0.1086,0.1086,0.1087,0.1069,0,0,0.1089,0.109,0,0,0,0,0,0,0,0,0.1063,0.1061,0.1042,0.1042,0.1043,0.1034,0.1054,0.1041,0.1039,0.104,0.1042,0.1043,0.1074,0.1075,0.1068,0.1071,0.1073,0.1089,0.109,0.109,0.109,0,0,0,0,0,0,0,0.1065,0.1061,0.1029,0.1041,0.1042,0.1049,0.1048,0.1051,0.1051,0.104,0.1041,0.1041,0.1075,0.1068,0.107,0.1074,0.1089,0.109,0.109,0.1091,0.1141,0.1142,0,0,0,0,0,0,0.1066,0.1062,0.1029,0.1028,0.1057,0.1048,0.1046,0.1035,0.105,0.1053,0.104,0.1042,0.1066,0.1069,0.1072,0.1107,0.109,0.1091,0.1091,0.114,0.1141,0.1142,0,0,0,0,0,0,0.1067,0.1063,0.1029,0.1047,0.1043,0.1046,0.1033,0.1034,0.1049,0.105,0.1054,0.1057,0.1067,0.107,0.1092,0.1107,0.1091,0.1092,0.1139,0.1141,0.1142,0.1143,0,0,0,0,0,0,0.1068,0.1063,0.107,0.1046,0.1042,0.1027,0.1033,0.1033,0.1047,0.1049,0.1065,0.1069,0.1068,0.1091,0.1093,0.1108,0.1092,0.1138,0.114,0.1141,0.1141,0.1144,0.1146,0,0,0,0,0,0.107,0.1074,0.107,0.1067,0.1046,0.1027,0.1026,0.1031,0.1047,0.105,0.1066,0.107,0.1104,0.1092,0.1094,0.1109,0.1137,0.1139,0.1141,0.114,0.1143,0.1146,0,0,0,0,0,0,0.1102,0.1075,0.1071,0.1068,0.1053,0.1031,0.1044,0.1042,0.1054,0.1072,0.1073,0.1077,0.1104,0.1108,0.1095,0.1131,0.1124,0.1127,0.1123,0.1126,0.1128,0.1149,0.1093,0,0,0,0,0,0.1109,0.1106,0.1077,0.1078,0.1075,0.1062,0.1063,0.1061,0.1062,0.107,0.1078,0.1097,0.1108,0.112,0.113,0.1144,0.1154,0.1159,0.1161,0.1163,0.1183,0.1204,0.121,0.1149,0.1149,0.1149,0,0,0.1123,0.1109,0.1109,0.1086,0.1081,0.1068,0.1066,0.1071,0.1071,0.1073,0.1094,0.1105,0.1115,0.1132,0.1145,0.114,0.1182,0.1166,0.1167,0.1186,0.1207,0.1212,0.1218,0.115,0.115,0.115,0,0,0.1138,0.1137,0.1133,0.112,0.111,0.1097,0.1102,0.1088,0.1098,0.1108,0.1115,0.1141,0.1152,0.1162,0.1169,0.1193,0.1193,0.1195,0.1221,0.1241,0.1246,0.125,0.1252,0.1257,0.1196,0.1196,0.1196,0,0.1161,0.1141,0.1132,0.112,0.1117,0.1111,0.1104,0.1105,0.1102,0.1122,0.1125,0.1163,0.1171,0.1195,0.1203,0.1199,0.1203,0.1205,0.1243,0.1248,0.1252,0.1254,0.1259,0.1196,0.1196,0.1196,0.1196,0,0.1151,0.1148,0.115,0.1129,0.1125,0.1123,0.1113,0.113,0.1147,0.1151,0.1192,0.1198,0.1229,0.1226,0.1222,0.1259,0.1246,0.124,0.1232,0.1258,0.1258,0.1264,0.1196,0.1196,0.1196,0.1196,0,0,0.1169,0.1147,0.115,0.1149,0.1132,0.1129,0.1144,0.1154,0.1185,0.1197,0.1235,0.1255,0.1275,0.1285,0.1281,0.1295,0.1321,0.1284,0.1285,0.1281,0.1352,0.1378,0.1386,0.1315,0.1317,0.1318,0.1331,0,0.1166,0.1151,0.114,0.1142,0.1134,0.1143,0.1158,0.1178,0.1202,0.1239,0.1265,0.1295,0.1289,0.1307,0.1324,0.1321,0.1339,0.1318,0.1334,0.1335,0.135,0.1395,0.118,0.1177,0.1336,0.1337,0.1338,0,0.1151,0.1146,0.1143,0.1155,0.1157,0.1167,0.1211,0.122,0.1269,0.1295,0.1335,0.1348,0.1378,0.1368,0.1393,0.1377,0.138,0.1373,0.1373,0.1409,0.1373,0.1182,0.1181,0.1347,0.1346,0.1346,0.1345,0,0.1156,0.1152,0.1157,0.1155,0.1164,0.1195,0.1212,0.1255,0.1276,0.1333,0.1357,0.1397,0.141,0.1429,0.142,0.1412,0.1438,0.1422,0.1448,0.1448,0.1278,0.1263,0.146,0.146,0.146,0.146,0.146,0,0.1142,0.1152,0.1171,0.1173,0.1209,0.1216,0.1264,0.1293,0.1334,0.1365,0.1391,0.1412,0.1428,0.1436,0.1438,0.1462,0.1456,0.1476,0.1469,0.1272,0.1257,0.1418,0.1413,0.146,0.146,0.146,0.146,0,0.1133,0.1143,0.1156,0.1188,0.1209,0.1238,0.1282,0.131,0.135,0.1387,0.1403,0.1425,0.1435,0.1437,0.1452,0.1481,0.1499,0.1506,0.1274,0.1242,0.1491,0.1486,0.1558,0.1559,0.1561,0.1562,0.1562,0,0.1116,0.1124,0.117,0.1188,0.1208,0.1252,0.1281,0.1323,0.1344,0.1391,0.1404,0.1422,0.1427,0.1458,0.1474,0.1492,0.1502,0.1341,0.1319,0.1524,0.1509,0.1502,0.1495,0.1064,0.1061,0.1058,0.1056,0,0.1084,0.1117,0.1124,0.1167,0.1207,0.1233,0.1277,0.1286,0.1332,0.1355,0.1366,0.1372,0.1408,0.131,0.1353,0.1357,0.1328,0.1296,0.1544,0.1107,0.1069,0.1051,0.1058,0.1032,0.1034,0.1036,0.1037,0.1038,0.1062,0.1066,0.1089,0.1126,0.1164,0.1181,0.1178,0.1205,0.1212,0.1194,0.1253,0.1172,0.1176,0.1127,0.1148,0.1172,0.1284,0.1185,0.1187,0.1194,0.1169,0.1139,0.1108,0.111,0.1113,0.1115,0.1117,0,0.1005,0.1021,0.1043,0.1067,0.1068,0.113,0.1144,0.1095,0.1061,0.1044,0.102,0.0816,0.0791,0.081,0.0808,0.0921,0.0894,0.0885,0.0743,0.0765,0.0786,0.0736,0.0562,0.0562,0.0561,0.0561,0,0,0.0969,0.0962,0.0972,0.0954,0.0982,0.0962,0.0953,0.0881,0.0821,0.0647,0.0554,0.0634,0.0675,0.053,0.0581,0.0533,0.0653,0.0543,0.0963,0.0804,0.0824,0.0917,0.0863,0,0,0,0,0]},{"header":{"parameterUnit":"m.s-1","parameterCategory":2,"la1":30.2991,"la2":30.254,"lo1":-89.0895,"lo2":-89.0444,"dy":0.0017,"dx":0.0017,"nx":28,"ny":28,"refTime":"2023-08-21T03:00:00:Z","depth":"2","parameterNumber":3,"parameterNumberName":"V-component_of_CURRENTS"},"data":[0,0,0,0,0,0,0,0,0,0,0,0,0,0,0,0,0,0,0,0,0,0,0,0,0,0,0,0,0,0,0,0,0,0,0,0,0,0,0,0,0,0,0,0,0,0,0,0,0,0,0,0,0,0,0,0,0,0,0.0453,0.0453,0,0.0484,0.0485,0.0485,0.0428,0.0427,0.0425,0.0423,0.0391,0.0392,0.0393,0,0,0,0,0,0,0,0,0,0,0,0,0,0.0379,0.038,0.0453,0.0453,0.0454,0.0484,0.0485,0.0485,0.0429,0.0427,0.0425,0.0423,0.0391,0.0392,0.0393,0,0,0,0,0,0,0,0,0,0,0,0,0,0.0409,0.038,0.0453,0.0431,0.043,0.0484,0.0485,0.0485,0.0429,0.0427,0.0424,0.0422,0.0391,0.0392,0.0393,0.0451,0,0,0.0396,0.0397,0,0,0,0,0,0,0,0,0.0407,0.0411,0.0434,0.0433,0.0431,0.0452,0.0447,0.0471,0.043,0.0427,0.0423,0.042,0.0409,0.0409,0.0418,0.0449,0.0448,0.0397,0.0397,0.0398,0.0398,0,0,0,0,0,0,0,0.0405,0.041,0.0463,0.0435,0.0433,0.0432,0.0433,0.0452,0.0429,0.0427,0.0424,0.0431,0.0407,0.0417,0.0417,0.0448,0.0396,0.0397,0.0398,0.0399,0.0424,0.0424,0,0,0,0,0,0,0.0407,0.0408,0.0462,0.0464,0.0415,0.0435,0.0436,0.0446,0.043,0.0427,0.0434,0.0429,0.0416,0.0415,0.0415,0.0398,0.0398,0.0399,0.0399,0.0424,0.0424,0.0424,0,0,0,0,0,0,0.0405,0.0411,0.0461,0.0438,0.0444,0.0439,0.0451,0.0448,0.0421,0.0436,0.043,0.0405,0.0414,0.0414,0.0416,0.0399,0.0399,0.04,0.0424,0.0424,0.0424,0.0418,0,0,0,0,0,0,0.0403,0.0411,0.0405,0.0438,0.0446,0.048,0.0453,0.0451,0.0434,0.0426,0.0412,0.0408,0.0412,0.0414,0.0417,0.0401,0.0401,0.0424,0.0424,0.0424,0.0418,0.0418,0.0418,0,0,0,0,0,0.04,0.0417,0.0405,0.0411,0.0443,0.0481,0.0484,0.0471,0.0434,0.0433,0.0422,0.0406,0.0415,0.0416,0.0419,0.0403,0.0424,0.0424,0.0424,0.0419,0.0418,0.0418,0,0,0,0,0,0,0.039,0.0414,0.0401,0.0424,0.044,0.0471,0.047,0.0457,0.0448,0.0425,0.0422,0.0421,0.0415,0.0415,0.0416,0.0409,0.0411,0.0412,0.0406,0.0405,0.0405,0.0406,0.0402,0,0,0,0,0,0.0386,0.0393,0.0421,0.0435,0.044,0.0445,0.0451,0.0442,0.0448,0.0438,0.0426,0.0416,0.0428,0.0418,0.043,0.0434,0.0423,0.0421,0.042,0.042,0.0423,0.0408,0.0406,0.0424,0.0424,0.0424,0,0,0.0388,0.0399,0.0404,0.0431,0.0436,0.0463,0.044,0.0446,0.0454,0.044,0.0428,0.0421,0.0432,0.0436,0.0431,0.0425,0.0406,0.042,0.042,0.0423,0.0408,0.0406,0.0404,0.0424,0.0424,0.0424,0,0,0.0411,0.0402,0.0418,0.0432,0.0441,0.0453,0.0447,0.0456,0.0438,0.0442,0.0432,0.0419,0.0421,0.0432,0.0438,0.0446,0.0412,0.0427,0.0417,0.0403,0.0401,0.04,0.0366,0.0361,0.0417,0.0417,0.0417,0,0.0407,0.0436,0.043,0.0453,0.0467,0.0446,0.0473,0.0471,0.0472,0.0467,0.043,0.0431,0.0428,0.0452,0.044,0.0446,0.0417,0.0418,0.0402,0.04,0.0399,0.0365,0.036,0.0416,0.0417,0.0417,0.0417,0,0.0457,0.0465,0.0478,0.0496,0.0509,0.0527,0.0532,0.0518,0.0481,0.0479,0.0465,0.0457,0.0447,0.0441,0.0438,0.0427,0.0402,0.041,0.0402,0.0396,0.0361,0.0356,0.0416,0.0416,0.0416,0.0416,0,0,0.0481,0.0507,0.0505,0.0518,0.0528,0.0552,0.0555,0.057,0.0563,0.0528,0.0519,0.0514,0.0468,0.0473,0.0455,0.0434,0.0387,0.0399,0.0398,0.0362,0.0323,0.0375,0.0374,0.0376,0.0376,0.0376,0.0295,0,0.0515,0.0564,0.0567,0.0604,0.0632,0.0613,0.0624,0.0623,0.0598,0.0579,0.0547,0.0522,0.0493,0.0454,0.0437,0.0403,0.0375,0.0406,0.0336,0.0334,0.0379,0.0372,0.0499,0.0445,0.029,0.029,0.0289,0,0.0564,0.0589,0.0628,0.0656,0.0664,0.0664,0.0665,0.0671,0.0646,0.0614,0.0574,0.0539,0.0493,0.0461,0.0396,0.0404,0.0356,0.0332,0.0328,0.0379,0.0378,0.0429,0.0441,0.0281,0.0281,0.0282,0.0282,0,0.0595,0.0634,0.0659,0.067,0.0695,0.0679,0.0671,0.0659,0.0648,0.0599,0.0558,0.0531,0.0452,0.0423,0.0339,0.0351,0.0266,0.0287,0.0298,0.0299,0.0399,0.0412,0.0248,0.0248,0.0248,0.0248,0.0249,0,0.0647,0.0665,0.0656,0.0672,0.0681,0.0679,0.0664,0.0653,0.0612,0.0586,0.054,0.0498,0.0426,0.0368,0.0336,0.0288,0.0254,0.0296,0.029,0.04,0.0413,0.0272,0.0276,0.0245,0.0246,0.0247,0.0247,0,0.0681,0.068,0.0708,0.0707,0.069,0.0683,0.0634,0.0639,0.0571,0.0524,0.0485,0.0425,0.0338,0.0293,0.0223,0.0256,0.0234,0.0223,0.0345,0.0357,0.0279,0.0284,0.0254,0.0255,0.0257,0.0258,0.0258,0,0.0705,0.0719,0.0715,0.0708,0.0687,0.0658,0.0648,0.0606,0.0597,0.0486,0.0473,0.0354,0.0336,0.027,0.0337,0.0333,0.0194,0.0368,0.0449,0.0287,0.0283,0.0286,0.0288,0.0559,0.0562,0.0565,0.0567,0,0.0743,0.0722,0.0744,0.0726,0.0702,0.0704,0.0663,0.0658,0.0597,0.0556,0.0498,0.0471,0.0436,0.0513,0.0484,0.0491,0.0399,0.0424,0.0214,0.0551,0.0573,0.0569,0.0562,0.059,0.0588,0.0586,0.0585,0.0584,0.0743,0.076,0.0757,0.0748,0.0724,0.0728,0.0739,0.0723,0.0714,0.0698,0.065,0.0684,0.0653,0.0787,0.0654,0.0564,0.0631,0.0586,0.0578,0.0568,0.0631,0.0656,0.0698,0.0696,0.0695,0.0694,0.0692,0,0.0752,0.0755,0.0772,0.077,0.0775,0.072,0.0742,0.0802,0.0814,0.0867,0.0888,0.0932,0.1003,0.0838,0.085,0.0812,0.0793,0.0636,0.0641,0.0629,0.0615,0.0675,0.0755,0.0752,0.075,0.0748,0,0,0.0748,0.0776,0.0804,0.0808,0.0772,0.0771,0.0782,0.0883,0.0975,0.1052,0.1116,0.1337,0.1179,0.1119,0.0993,0.0863,0.073,0.0817,0.0827,0.0849,0.0831,0.07,0.0796,0,0,0,0,0]}],[{"header":{"parameterUnit":"m.s-1","parameterCategory":2,"la1":30.2991,"la2":30.254,"lo1":-89.0895,"lo2":-89.0444,"dy":0.0017,"dx":0.0017,"nx":28,"ny":28,"refTime":"2023-08-21T03:00:00:Z","depth":"4","parameterNumber":2,"parameterNumberName":"U-component_of_CURRENTS"},"data":[0,0,0,0,0,0,0,0,0,0,0,0,0,0,0,0,0,0,0,0,0,0,0,0,0,0,0,0,0,0,0,0,0,0,0,0,0,0,0,0,0,0,0,0,0,0,0,0,0,0,0,0,0,0,0,0,0,0,0.008,0.0081,0,0.0104,0.0105,0.0105,0.0115,0.0115,0.0115,0.0115,0.0114,0.0113,0.0113,0,0,0,0,0,0,0,0,0,0,0,0,0,0.0025,0.0026,0.008,0.0081,0.0081,0.0104,0.0105,0.0105,0.0115,0.0115,0.0115,0.0115,0.0114,0.0113,0.0113,0,0,0,0,0,0,0,0,0,0,0,0,0,0.0048,0.0026,0.008,0.0089,0.0091,0.0104,0.0105,0.0105,0.0115,0.0115,0.0115,0.0115,0.0114,0.0113,0.0113,0.0112,0,0,0.0113,0.0113,0,0,0,0,0,0,0,0,0.0047,0.005,0.0088,0.0089,0.009,0.0107,0.0085,0.0106,0.0115,0.0105,0.0115,0.0115,0.011,0.011,0.0114,0.0112,0.0112,0.0113,0.0113,0.0113,0.0113,0,0,0,0,0,0,0,0.0045,0.0049,0.0089,0.0088,0.009,0.0086,0.0089,0.0089,0.0106,0.0106,0.0107,0.011,0.011,0.0114,0.0114,0.0112,0.0113,0.0113,0.0113,0.0113,0.0158,0.0159,0,0,0,0,0,0,0.0045,0.0048,0.0088,0.009,0.0069,0.0087,0.0091,0.0101,0.0106,0.0107,0.011,0.0111,0.0114,0.0114,0.0113,0.014,0.0113,0.0113,0.0113,0.0156,0.0158,0.0159,0,0,0,0,0,0,0.0044,0.0049,0.0087,0.0069,0.0074,0.0088,0.0099,0.0102,0.011,0.011,0.0111,0.0117,0.0114,0.0114,0.0127,0.0139,0.0113,0.0113,0.0155,0.0157,0.0158,0.0176,0,0,0,0,0,0,0.0042,0.0048,0.0056,0.007,0.0075,0.0099,0.01,0.0102,0.0112,0.0113,0.0116,0.0116,0.0114,0.0128,0.0127,0.0139,0.0113,0.0153,0.0156,0.0158,0.0174,0.0179,0.0182,0,0,0,0,0,0.004,0.005,0.0056,0.0061,0.0085,0.0099,0.0102,0.0111,0.0113,0.0118,0.0128,0.0116,0.0142,0.0128,0.0128,0.0139,0.0152,0.0155,0.0158,0.0172,0.0178,0.0182,0,0,0,0,0,0,0.0029,0.0053,0.0059,0.0076,0.0088,0.0101,0.0107,0.0114,0.0125,0.0127,0.0127,0.0127,0.0145,0.0144,0.0129,0.0162,0.0147,0.015,0.0159,0.0164,0.0168,0.0169,0.0113,0,0,0,0,0,0.003,0.0045,0.0064,0.0076,0.0083,0.0096,0.0103,0.0111,0.0123,0.0128,0.0133,0.0144,0.0155,0.016,0.0168,0.0182,0.0178,0.0192,0.0196,0.02,0.0203,0.0219,0.0224,0.0168,0.0168,0.0168,0,0,0.0027,0.0044,0.0051,0.0075,0.0085,0.01,0.01,0.0114,0.0129,0.0125,0.0147,0.0154,0.0163,0.0182,0.019,0.0183,0.0213,0.0203,0.0206,0.0207,0.0222,0.0228,0.0232,0.017,0.017,0.0169,0,0,0.0029,0.0046,0.0058,0.0072,0.0092,0.0103,0.0109,0.0128,0.0138,0.016,0.0165,0.0184,0.0197,0.021,0.0217,0.0249,0.0233,0.0252,0.0272,0.0288,0.0292,0.0296,0.0289,0.0292,0.0255,0.0255,0.0255,0,0.0026,0.0049,0.0062,0.0079,0.0093,0.0106,0.0123,0.0137,0.0159,0.0172,0.017,0.0207,0.0213,0.0241,0.0256,0.0257,0.0255,0.0248,0.0291,0.0295,0.0299,0.0291,0.0294,0.0256,0.0256,0.0256,0.0256,0,0.0039,0.0058,0.0066,0.0096,0.0111,0.0127,0.0149,0.0167,0.0181,0.0197,0.0227,0.024,0.0263,0.027,0.0273,0.0305,0.0291,0.0291,0.0274,0.0305,0.0295,0.0298,0.0258,0.0257,0.0257,0.0257,0,0,0.0034,0.0068,0.0073,0.0091,0.0123,0.0138,0.0165,0.0195,0.0216,0.0237,0.0265,0.0293,0.03,0.031,0.0316,0.0332,0.0353,0.0325,0.0325,0.0308,0.0372,0.0307,0.0304,0.036,0.0361,0.0362,0.035,0,0.0043,0.0074,0.0091,0.0124,0.0144,0.0166,0.0191,0.0219,0.0242,0.0271,0.029,0.0317,0.0315,0.0329,0.0346,0.0352,0.0364,0.0355,0.0353,0.0352,0.0284,0.0307,0.0365,0.0352,0.0353,0.0353,0.0354,0,0.0057,0.0077,0.0108,0.0146,0.0157,0.0179,0.0224,0.0248,0.0287,0.0303,0.0331,0.0342,0.037,0.0366,0.0387,0.0381,0.0382,0.0383,0.0382,0.0318,0.0293,0.0319,0.0359,0.0358,0.0358,0.0357,0.0357,0,0.0055,0.0092,0.0118,0.0132,0.0174,0.0195,0.0221,0.0261,0.0286,0.0328,0.0343,0.0373,0.0388,0.04,0.039,0.0398,0.0399,0.041,0.035,0.0345,0.0397,0.0393,0.0431,0.0431,0.0431,0.0431,0.0431,0,0.0065,0.0087,0.0121,0.0137,0.017,0.0202,0.0244,0.0268,0.0311,0.0332,0.0362,0.0371,0.04,0.0397,0.0395,0.0364,0.0401,0.0354,0.0342,0.0404,0.0401,0.0398,0.0394,0.0431,0.0431,0.0431,0.0431,0,0.0062,0.0084,0.0115,0.0157,0.0172,0.0198,0.0252,0.0273,0.0317,0.0344,0.0356,0.038,0.0366,0.0367,0.0375,0.036,0.0344,0.0325,0.0369,0.036,0.0281,0.0279,0.0274,0.0272,0.027,0.0268,0.0267,0,0.0062,0.0078,0.0121,0.0132,0.0152,0.0195,0.0216,0.0271,0.0291,0.0333,0.0333,0.0339,0.0341,0.0293,0.0302,0.028,0.0278,0.0273,0.0305,0.0278,0.0268,0.0269,0.0269,0.0264,0.0263,0.0263,0.0262,0,0.0054,0.007,0.009,0.0112,0.0135,0.016,0.0196,0.0212,0.0262,0.0308,0.0301,0.0293,0.0269,0.0257,0.0231,0.0221,0.0281,0.0253,0.0258,0.0288,0.0266,0.0258,0.026,0.0256,0.0257,0.0257,0.0258,0,0.0044,0.0049,0.0066,0.0083,0.0104,0.0105,0.0138,0.0158,0.0189,0.0246,0.0236,0.0236,0.0259,0.0224,0.0199,0.0177,0.0188,0.0198,0.0206,0.0214,0.0198,0.016,0.0109,0,0,0,0,0,0.0033,0.0026,0.0031,0.0044,0.0058,0.006,0.0106,0.014,0.0198,0.0181,0.0214,0.0188,0.0164,0.0165,0.0129,0.016,0.0177,0.0118,0.019,0.0219,0.0226,0.0211,0,0,0,0,0,0,0.0019,0.0025,0.0018,-0.0004,-0.0012,-0.0004,0.0015,0.0053,0.0059,0.0121,0.0107,0.0159,0.0133,0.0163,0.0114,0.0115,0.0154,0.0128,0.0128,0.0214,0.0221,0.0227,0.0215,0,0,0,0,0]},{"header":{"parameterUnit":"m.s-1","parameterCategory":2,"la1":30.2991,"la2":30.254,"lo1":-89.0895,"lo2":-89.0444,"dy":0.0017,"dx":0.0017,"nx":28,"ny":28,"refTime":"2023-08-21T03:00:00:Z","depth":"4","parameterNumber":3,"parameterNumberName":"V-component_of_CURRENTS"},"data":[0,0,0,0,0,0,0,0,0,0,0,0,0,0,0,0,0,0,0,0,0,0,0,0,0,0,0,0,0,0,0,0,0,0,0,0,0,0,0,0,0,0,0,0,0,0,0,0,0,0,0,0,0,0,0,0,0,0,0.0586,0.0586,0,0.0604,0.0604,0.0605,0.0617,0.0617,0.0617,0.0617,0.0634,0.0634,0.0635,0,0,0,0,0,0,0,0,0,0,0,0,0,0.0558,0.0559,0.0586,0.0586,0.0586,0.0604,0.0604,0.0605,0.0617,0.0617,0.0617,0.0617,0.0634,0.0634,0.0635,0,0,0,0,0,0,0,0,0,0,0,0,0,0.0573,0.0559,0.0586,0.0594,0.0595,0.0604,0.0604,0.0605,0.0617,0.0617,0.0617,0.0617,0.0634,0.0634,0.0635,0.0638,0,0,0.0637,0.0637,0,0,0,0,0,0,0,0,0.0573,0.0574,0.0593,0.0594,0.0595,0.0608,0.0601,0.0615,0.0617,0.0609,0.0617,0.0617,0.0624,0.0626,0.063,0.0639,0.0639,0.0637,0.0637,0.0637,0.0638,0,0,0,0,0,0,0,0.0571,0.0574,0.0594,0.0593,0.0594,0.0595,0.0598,0.0604,0.0617,0.061,0.0611,0.0612,0.0625,0.063,0.0631,0.064,0.0637,0.0637,0.0638,0.0638,0.0672,0.0672,0,0,0,0,0,0,0.0568,0.0573,0.0593,0.0594,0.0583,0.0596,0.0598,0.0604,0.0617,0.0619,0.0612,0.0612,0.0629,0.063,0.0631,0.0659,0.0637,0.0638,0.0638,0.0671,0.0672,0.0673,0,0,0,0,0,0,0.0567,0.057,0.0593,0.0583,0.0586,0.0596,0.0602,0.0604,0.0617,0.0618,0.062,0.0622,0.0629,0.063,0.065,0.0659,0.0638,0.0639,0.0671,0.0672,0.0672,0.0699,0,0,0,0,0,0,0.0567,0.057,0.0578,0.0583,0.0586,0.0605,0.0602,0.0605,0.0616,0.0617,0.0628,0.0629,0.0629,0.0649,0.065,0.0659,0.0639,0.067,0.0671,0.0672,0.0698,0.0701,0.0704,0,0,0,0,0,0.0566,0.0577,0.0578,0.0581,0.0596,0.0606,0.0608,0.0615,0.0617,0.0626,0.0636,0.0629,0.0656,0.065,0.0652,0.0661,0.067,0.0671,0.0672,0.0696,0.07,0.0704,0,0,0,0,0,0,0.0572,0.058,0.0581,0.0595,0.0602,0.0608,0.0619,0.062,0.0636,0.0639,0.064,0.0642,0.0661,0.0658,0.0652,0.0673,0.066,0.0661,0.0678,0.0681,0.0684,0.0682,0.064,0,0,0,0,0,0.0576,0.0588,0.0591,0.0605,0.0609,0.0614,0.0621,0.0625,0.0635,0.0642,0.065,0.0658,0.0665,0.0672,0.0679,0.0693,0.0692,0.0699,0.0702,0.0704,0.0703,0.0706,0.0709,0.0676,0.0676,0.0676,0,0,0.0582,0.0589,0.0595,0.0607,0.0614,0.0625,0.0619,0.0633,0.0645,0.0641,0.0667,0.067,0.0672,0.0689,0.0696,0.0689,0.0716,0.0706,0.0708,0.0706,0.0707,0.071,0.0713,0.0677,0.0677,0.0677,0,0,0.0599,0.0607,0.062,0.0625,0.0636,0.064,0.0645,0.0655,0.0664,0.0684,0.0684,0.0694,0.071,0.0712,0.0714,0.0736,0.0732,0.0739,0.0753,0.0756,0.0758,0.0761,0.0778,0.0782,0.074,0.074,0.074,0,0.0606,0.0623,0.0626,0.0637,0.0645,0.0648,0.0662,0.0671,0.0688,0.0695,0.0696,0.0716,0.0718,0.0732,0.0742,0.0742,0.0749,0.074,0.0759,0.0761,0.0763,0.078,0.0784,0.0742,0.0742,0.0741,0.0741,0,0.0627,0.0643,0.0652,0.0667,0.0677,0.069,0.0697,0.0711,0.072,0.0725,0.0743,0.0747,0.0755,0.0759,0.0759,0.0773,0.0777,0.0763,0.075,0.0768,0.0785,0.0789,0.0744,0.0743,0.0743,0.0743,0,0,0.0637,0.0662,0.0666,0.0678,0.0693,0.0704,0.0723,0.0739,0.0747,0.0763,0.0774,0.0789,0.0785,0.0787,0.0785,0.079,0.0815,0.0786,0.0786,0.0804,0.0836,0.0813,0.0815,0.0806,0.0806,0.0806,0.0849,0,0.0654,0.0682,0.069,0.0719,0.0734,0.074,0.0755,0.0768,0.0775,0.0786,0.0788,0.08,0.0797,0.0802,0.0806,0.0807,0.0822,0.0805,0.0816,0.0817,0.0793,0.0816,0.0807,0.0851,0.0852,0.0852,0.0853,0,0.0672,0.0689,0.0721,0.0744,0.0751,0.077,0.0789,0.0803,0.0811,0.0814,0.082,0.0817,0.0829,0.0819,0.0837,0.0829,0.0839,0.0841,0.0843,0.0811,0.0799,0.0825,0.0858,0.0858,0.0857,0.0857,0.0857,0,0.0681,0.0711,0.074,0.0748,0.0773,0.0792,0.0808,0.0818,0.0834,0.0835,0.0843,0.0842,0.0857,0.0855,0.087,0.0853,0.0893,0.0864,0.0858,0.0858,0.0853,0.085,0.0883,0.0883,0.0883,0.0883,0.0883,0,0.0692,0.0717,0.075,0.0766,0.08,0.081,0.0844,0.0848,0.0862,0.0888,0.0864,0.0877,0.0868,0.0888,0.0882,0.089,0.0906,0.0867,0.0865,0.0866,0.0864,0.0856,0.0853,0.0884,0.0884,0.0884,0.0884,0,0.0697,0.072,0.0756,0.0792,0.081,0.0835,0.0883,0.0902,0.0905,0.0937,0.0943,0.0926,0.0945,0.0948,0.0956,0.0918,0.0915,0.0921,0.0948,0.0946,0.0873,0.0871,0.0892,0.0892,0.0891,0.0891,0.0891,0,0.07,0.072,0.0779,0.0807,0.0831,0.0875,0.0909,0.093,0.0948,0.0971,0.0982,0.1005,0.1001,0.099,0.0978,0.0969,0.0961,0.0941,0.0876,0.0878,0.0873,0.0871,0.0869,0.089,0.089,0.089,0.089,0,0.0699,0.0729,0.0759,0.0821,0.0871,0.0923,0.0969,0.0981,0.101,0.102,0.1015,0.0995,0.1019,0.0987,0.1002,0.0985,0.0927,0.0935,0.0935,0.0874,0.0875,0.0871,0.0869,0.0888,0.0888,0.0888,0.0889,0,0.0702,0.0724,0.0775,0.0827,0.0892,0.095,0.0976,0.1003,0.1024,0.1034,0.104,0.1043,0.1049,0.1,0.1005,0.0993,0.0958,0.0896,0.0897,0.0898,0.0872,0.0872,0.0889,0,0,0,0,0,0.07,0.0731,0.0776,0.0842,0.0907,0.0957,0.1004,0.1022,0.105,0.1048,0.104,0.1058,0.1028,0.1,0.0987,0.0992,0.0963,0.0967,0.0894,0.088,0.0882,0.0846,0,0,0,0,0,0,0.07,0.0747,0.077,0.0846,0.0898,0.0981,0.1019,0.1043,0.1024,0.1036,0.1024,0.1016,0.1,0.106,0.0981,0.0976,0.0911,0.0964,0.0961,0.0879,0.088,0.0882,0.0845,0,0,0,0,0]}]]